Weather History for Mobile Downtown, AL

Change the Weather History Date:

Wednesday, October 12, 2011

  Actual Average Record
Temperature  
Mean Temperature 68 °F -  
Max Temperature 75 °F 78 °F 84 °F (1997)
Min Temperature 64 °F 58 °F 46 °F (2000)
Cooling Degree Days 4    
Growing Degree Days 18 (Base 50)    
Moisture  
Dew Point 64 °F    
Average Humidity 85    
Maximum Humidity 97    
Minimum Humidity 71    
Precipitation  
Precipitation 0.00 in - - ()
Sea Level Pressure  
Sea Level Pressure 29.85 in    
Wind  
Wind Speed 3 mph (North)    
Max Wind Speed 7 mph    
Max Gust Speed -    
Visibility 10 miles    
Events      
Averages and records for this station are not official NWS values.
T = Trace of Precipitation, MM = Missing Value Source: NWS Daily Summary

Daily Weather History Graph

Daily Weather History Graph

Search for Another Location

Airport:

Trip Planner

Search our weather history database for the weather conditions in past years. The results will help you decide how hot, cold, wet, or windy it might be!

Date:

Astronomy

Oct. 12, 2011 Rise Set
Actual Time 6:52 AM CDT 6:24 PM CDT
Civil Twilight 6:28 AM CDT 6:48 PM CDT
Nautical Twilight 6:00 AM CDT 7:16 PM CDT
Astronomical Twilight 5:32 AM CDT 7:44 PM CDT
Moon 6:34 PM CDT (10/12) 7:20 AM CDT (10/12)
Length of Visible Light 12h 20m
Length of Day
11h 32m
Full, 100% of the Moon is Illuminated
Oct 12
Full
Oct 19
Last Quarter
Oct 26
New
Nov 2
First Quarter
Nov 10
Full

Hourly Weather History & Observations

Time (CDT) Temp. Dew Point Humidity Pressure Visibility Wind Dir Wind Speed Gust Speed Precip Events Conditions
12:53 AM 68.0 °F 66.0 °F 93% 29.88 in 10.0 mi North 6.9 mph - N/A   Overcast
1:53 AM 68.0 °F 66.2 °F 94% 29.88 in 10.0 mi NNW 3.5 mph - N/A   Overcast
2:53 AM 66.9 °F 66.0 °F 97% 29.86 in 10.0 mi Calm Calm - N/A   Overcast
3:13 AM 66.2 °F 64.4 °F 94% 29.86 in 10.0 mi NNW 5.8 mph - N/A   Overcast
3:20 AM 66.2 °F 64.4 °F 94% 29.86 in 10.0 mi NNW 4.6 mph - N/A   Overcast
3:53 AM 66.9 °F 64.9 °F 93% 29.85 in 10.0 mi NNE 4.6 mph - N/A   Overcast
4:53 AM 66.9 °F 64.9 °F 93% 29.85 in 10.0 mi North 4.6 mph - N/A   Overcast
5:53 AM 66.9 °F 64.9 °F 93% 29.87 in 10.0 mi North 4.6 mph - N/A   Overcast
6:53 AM 66.0 °F 64.9 °F 96% 29.87 in 10.0 mi Calm Calm - N/A   Overcast
7:53 AM 66.9 °F 64.9 °F 93% 29.88 in 10.0 mi Calm Calm - N/A   Overcast
8:53 AM 71.1 °F 64.9 °F 81% 29.89 in 10.0 mi North 3.5 mph - N/A   Overcast
9:01 AM 71.6 °F 64.4 °F 78% 29.89 in 10.0 mi NNE 3.5 mph - N/A   Overcast
9:53 AM 71.1 °F 64.9 °F 81% 29.89 in 10.0 mi ENE 3.5 mph - N/A   Overcast
10:53 AM 71.1 °F 64.0 °F 78% 29.89 in 10.0 mi Calm Calm - N/A   Overcast
11:53 AM 72.0 °F 64.0 °F 76% 29.88 in 10.0 mi Calm Calm - N/A   Overcast
12:53 PM 72.0 °F 64.0 °F 76% 29.86 in 10.0 mi Calm Calm - N/A   Overcast
1:53 PM 73.9 °F 64.0 °F 71% 29.84 in 10.0 mi Calm Calm - N/A   Overcast
2:53 PM 73.9 °F 64.0 °F 71% 29.83 in 10.0 mi Calm Calm - N/A   Overcast
3:53 PM 73.9 °F 64.0 °F 71% 29.82 in 10.0 mi Calm Calm - N/A   Overcast
4:00 PM 73.4 °F 64.4 °F 73% 29.82 in 10.0 mi Calm Calm - N/A   Overcast
4:53 PM 73.9 °F 64.0 °F 71% 29.82 in 10.0 mi Calm Calm - N/A   Overcast
5:53 PM 73.0 °F 64.9 °F 76% 29.81 in 10.0 mi Calm Calm - N/A   Mostly Cloudy
6:53 PM 69.1 °F 64.9 °F 87% 29.81 in 10.0 mi South 3.5 mph - N/A   Partly Cloudy
7:53 PM 66.9 °F 64.0 °F 90% 29.82 in 10.0 mi South 4.6 mph - N/A   Clear
8:53 PM 64.4 °F 62.6 °F 94% 29.83 in 10.0 mi Calm Calm - N/A   Clear
9:53 PM 64.4 °F 62.6 °F 94% 29.84 in 8.0 mi Calm Calm - N/A   Clear
10:53 PM 66.0 °F 64.0 °F 93% 29.85 in 10.0 mi SSW 3.5 mph - N/A   Mostly Cloudy
11:53 PM 66.0 °F 64.0 °F 93% 29.84 in 10.0 mi Calm Calm - N/A   Overcast